FENGYUN 1C DEB, 30347

Orbit data source: Space-Track

FENGYUN 1C DEB, 30347 is space debris in SSO originally from a launch on Mon, 10 May 1999 UTC launched from the Taiyaun Space Center, China (TSC). Fengyun 1C debris stems from the Chinese weather satellite Fengyun-1C, which was intentionally destroyed by a Chinese anti-satellite missile in 2007. This event dramatically increased the amount of space debris, with thousands of trackable fragments posing hazards to satellites and human spaceflight. The Fengyun 1C debris cloud has become a focal point in discussions about space sustainability and the need for international regulations to prevent the creation of new debris.

Loading next visibility...
Identifier
30347, 1999-025ABJ
Orbit
SSO
Country
Flag of CNCN / PRC
Related business
Manufacturer
Unknown
Mission
Spacecraft
Bus & Motor
Unknown
Mass
Unknown
Launch date (UTC)
1999-05-10 (27 years ago)
Launch vehicle
Unknown
Launch site
Taiyaun Space Center, China (TSC)
Object type
Payload
Rocket body
Debris
Shape & HBR
Unknown shape, 0.1 m
Radar Cross Section
Medium (>0.1 m² and <1 m²)

Expand to show TLE details & history
Last TLE update: 1 day ago

TLE from 1 day ago
0 FENGYUN 1C DEB
1 30347U 99025ABJ 26254.39920806  .00000121  00000-0  11228-3 0  9999
2 30347  98.3993  57.8338 0149692 355.6893  33.2235 13.92895490997568
Epoch: 2026-09-11T09:34Z
TLE epoch observation values (Epoch: 2026-09-11T09:34:51.576Z)
Latitude
29.56536°
Longitude
-81.08348°
Altitude
831.275 km
Speed
7.486 km/s
True Right ascension
03h 32m 13s
True Declination
29° 25' 10"
Sunlit
Object was in daylight at epoch
Visualization orbit readout
Latitude
Unknown
Longitude
Unknown
Altitude
Unknown
Speed
Unknown
Apparent Right ascension
Unknown
Apparent Declination
Unknown
Sunlit
N/A
Visualization observer readout
Local Sidereal Time
10:17:33
Azimuth
Unknown
Elevation
Unknown
Doppler factor
Unknown
Orbital elements
Apogee altitude
1,024.864 km
Perigee altitude
806.498 km
Semi-major axis
7,293.818 km
Eccentricity
0.01497
Inclination
98.3993°
RAAN
57.8338°
Arg. of periapsis
355.6893°
True anomaly
34.17824°
Mean anomaly
33.2235°
Eccentric anomaly
33.69937°
Mean motion
3.48426 °/min
Orbital period
103.32 mins
BSTAR
0.00011228
Loading maneuver chart data...
Computing Atmospheric mass density...

Documentation

Showing up to 5 results
|